This is the latest recevied weather packets stored in our database for station/object K5NAN. If no packets are shown the sender has not sent any weather packets the latest 10 day(s).
| Time | Temp. | Humidity | Pressure | Rain* | Wind** | Luminosity | Snow |
|---|---|---|---|---|---|---|---|
| 1777933378 | 26.67° C | 53% | 1006 hPa | 0 mm | - | 336 W/m² | - |
| 1777933076 | 26.11° C | 53% | 1005.9 hPa | 0 mm | - | 370 W/m² | - |
| 1777932773 | 26.67° C | 52% | 1006.2 hPa | 0 mm | - | 402 W/m² | - |
| 1777932469 | 26.67° C | 52% | 1006.1 hPa | 0 mm | - | 394 W/m² | - |
| 1777932166 | 26.67° C | 54% | 1006.3 hPa | 0 mm | - | 431 W/m² | - |
| 1777931864 | 26.11° C | 54% | 1006.4 hPa | 0 mm | - | 497 W/m² | - |
| 1777931560 | 25.56° C | 53% | 1006.2 hPa | 0 mm | - | 403 W/m² | - |
| 1777931256 | 26.11° C | 52% | 1006.5 hPa | 0 mm | - | 453 W/m² | - |
| 1777930953 | 26.11° C | 53% | 1006.4 hPa | 0 mm | - | 470 W/m² | - |
| 1777930649 | 26.11° C | 52% | 1006.6 hPa | 0 mm | - | 547 W/m² | - |
| 1777930346 | 26.11° C | 51% | 1006.8 hPa | 0 mm | - | 539 W/m² | - |
| 1777930043 | 26.11° C | 52% | 1006.7 hPa | 0 mm | - | 534 W/m² | - |
| 1777929740 | 25.56° C | 53% | 1007.1 hPa | 0 mm | - | 519 W/m² | - |
| 1777929437 | 26.11° C | 51% | 1006.9 hPa | 0 mm | - | 501 W/m² | - |
| 1777929133 | 26.11° C | 52% | 1007.3 hPa | 0 mm | - | 560 W/m² | - |
| 1777928831 | 26.11° C | 52% | 1007.1 hPa | 0 mm | - | 575 W/m² | - |
| 1777928527 | 26.11° C | 51% | 1007.3 hPa | 0 mm | - | 566 W/m² | - |
| 1777928225 | 26.11° C | 51% | 1007.5 hPa | 0 mm | - | 608 W/m² | - |
| 1777927921 | 26.11° C | 50% | 1007.5 hPa | 0 mm | - | 486 W/m² | - |
| 1777927620 | 26.11° C | 51% | 1007.6 hPa | 0 mm | - | 571 W/m² | - |
| 1777927319 | 26.11° C | 50% | 1007.8 hPa | 0 mm | - | 648 W/m² | - |
| 1777927017 | 26.11° C | 51% | 1007.8 hPa | 0 mm | - | 712 W/m² | - |
| 1777926715 | 26.11° C | 49% | 1007.9 hPa | 0 mm | - | 693 W/m² | - |
| 1777926414 | 26.11° C | 48% | 1007.9 hPa | 0 mm | - | 691 W/m² | - |
| 1777926112 | 26.11° C | 50% | 1008.4 hPa | 0 mm | - | 671 W/m² | - |
* Rain latest hour (hover to see other rain measurements)
** Current wind speed in m/s (hover to see current wind gust speed)